Weather History for Fort Myers, FL

Change the Weather History Date:

Thursday, December 13, 2012

  Actual Average Record
Temperature  
Mean Temperature 68 °F 67 °F  
Max Temperature 74 °F 77 °F 87 °F (1967)
Min Temperature 62 °F 57 °F 26 °F (1962)
Degree Days  
Heating Degree Days 0 2  
Month to date heating degree days 0 21  
Since 1 July heating degree days 15 39  
Cooling Degree Days 3 4  
Month to date cooling degree days 97 59  
Year to date cooling degree days 4310 3922  
Growing Degree Days 18 (Base 50)    
Moisture  
Dew Point 64 °F    
Average Humidity 82    
Maximum Humidity 97    
Minimum Humidity 66    
Precipitation  
Precipitation 0.08 in 0.06 in 0.80 in (1907)
Month to date precipitation 1.87 0.63  
Year to date precipitation 49.30 54.85  
Sea Level Pressure  
Sea Level Pressure 30.09 in    
Wind  
Wind Speed 10 mph (NNE)    
Max Wind Speed 17 mph    
Max Gust Speed 23 mph    
Visibility 9 miles    
Events Rain    
T = Trace of Precipitation, MM = Missing Value Source: NWS Daily Summary

Daily Weather History Graph

Daily Weather History Graph

Search for Another Location

Airport:

Trip Planner

Search our weather history database for the weather conditions in past years. The results will help you decide how hot, cold, wet, or windy it might be!

Date:

Astronomy

Dec. 13, 2012 Rise Set
Actual Time 7:07 AM EST 5:36 PM EST
Civil Twilight 6:41 AM EST 6:01 PM EST
Nautical Twilight 6:12 AM EST 6:30 PM EST
Astronomical Twilight 5:44 AM EST 6:59 PM EST
Moon 7:16 AM EST (12/13) 6:15 PM EST (12/13)
Length of Visible Light 11h 20m
Length of Day
10h 29m
New Moon, 0% of the Moon is Illuminated
Dec 13
New Moon
Dec 20
First Quarter
Dec 28
Full
Jan 4
Last Quarter
Jan 11
New

Hourly Weather History & Observations

Time (EST) Temp. Dew Point Humidity Pressure Visibility Wind Dir Wind Speed Gust Speed Precip Events Conditions
12:53 AM 73.0 °F 71.1 °F 93% 30.06 in 8.0 mi SSW 4.6 mph - N/A   Scattered Clouds
1:53 AM 73.0 °F 71.1 °F 93% 30.05 in 7.0 mi Calm Calm - N/A   Overcast
2:40 AM 73.4 °F 71.6 °F 94% 30.03 in 7.0 mi SSW 3.5 mph - N/A   Overcast
2:48 AM 71.6 °F 71.6 °F 100% 30.03 in 7.0 mi SSW 3.5 mph - N/A   Overcast
2:53 AM 73.0 °F 71.1 °F 93% 30.04 in 7.0 mi Calm Calm - N/A   Overcast
3:34 AM 73.4 °F 71.6 °F 94% 30.03 in 2.0 mi NW 9.2 mph - 0.07 in Rain Rain
3:43 AM 71.6 °F 71.6 °F 100% 30.03 in 6.0 mi NNW 9.2 mph - 0.07 in Rain Light Rain
3:53 AM 72.0 °F 70.0 °F 93% 30.04 in 9.0 mi NW 10.4 mph - 0.08 in   Overcast
4:02 AM 71.6 °F 69.8 °F 94% 30.03 in 10.0 mi NW 8.1 mph - N/A   Overcast
4:53 AM 70.0 °F 68.0 °F 93% 30.05 in 10.0 mi NNW 11.5 mph - N/A   Overcast
5:53 AM 69.1 °F 66.0 °F 90% 30.07 in 10.0 mi NNW 8.1 mph - N/A   Overcast
6:53 AM 68.0 °F 64.9 °F 90% 30.09 in 10.0 mi North 11.5 mph - N/A   Overcast
7:53 AM 68.0 °F 64.9 °F 90% 30.11 in 10.0 mi NNW 9.2 mph - N/A   Overcast
8:35 AM 69.8 °F 64.4 °F 83% 30.11 in 10.0 mi North 10.4 mph - N/A   Overcast
8:53 AM 69.1 °F 64.0 °F 84% 30.13 in 10.0 mi North 10.4 mph - N/A   Overcast
9:53 AM 68.0 °F 63.0 °F 84% 30.15 in 10.0 mi North 9.2 mph - N/A   Overcast
10:53 AM 68.0 °F 62.1 °F 81% 30.15 in 10.0 mi North 11.5 mph - N/A   Overcast
11:46 AM 69.8 °F 60.8 °F 73% 30.14 in 10.0 mi North 11.5 mph - N/A   Overcast
11:53 AM 69.1 °F 61.0 °F 75% 30.14 in 10.0 mi North 10.4 mph 18.4 mph N/A   Mostly Cloudy
12:53 PM 71.1 °F 60.1 °F 68% 30.12 in 10.0 mi North 9.2 mph 18.4 mph N/A   Mostly Cloudy
1:53 PM 71.1 °F 60.1 °F 68% 30.10 in 10.0 mi NNE 13.8 mph - N/A   Overcast
2:53 PM 71.1 °F 59.0 °F 66% 30.10 in 10.0 mi NNE 9.2 mph - N/A   Mostly Cloudy
3:14 PM 71.6 °F 59.0 °F 64% 30.08 in 10.0 mi NE 8.1 mph - N/A   Scattered Clouds
3:29 PM 71.6 °F 60.8 °F 69% 30.09 in 10.0 mi North 8.1 mph - N/A   Mostly Cloudy
3:53 PM 72.0 °F 60.1 °F 66% 30.09 in 10.0 mi NE 9.2 mph - N/A   Scattered Clouds
4:19 PM 71.6 °F 60.8 °F 69% 30.08 in 10.0 mi NNE 13.8 mph - N/A   Mostly Cloudy
4:53 PM 70.0 °F 61.0 °F 73% 30.10 in 10.0 mi NE 11.5 mph - N/A   Overcast
5:10 PM 69.8 °F 60.8 °F 73% 30.09 in 10.0 mi NE 9.2 mph - N/A   Overcast
8:01 PM 64.4 °F 57.2 °F 77% 30.13 in 10.0 mi ENE 10.4 mph - N/A   Mostly Cloudy
8:40 PM 62.6 °F 57.2 °F 82% 30.14 in 10.0 mi NE 15.0 mph - N/A   Overcast
8:53 PM 63.0 °F 57.0 °F 81% 30.15 in 10.0 mi NE 13.8 mph - N/A   Overcast
9:53 PM 62.1 °F 57.0 °F 84% 30.17 in 10.0 mi NE 12.7 mph - N/A   Overcast
10:53 PM 63.0 °F 57.0 °F 81% 30.15 in 10.0 mi NE 10.4 mph - N/A   Overcast
11:53 PM 62.1 °F 55.9 °F 80% 30.14 in 10.0 mi NE 12.7 mph - N/A   Overcast